Time,TemperatureF,DewpointF,PressureIn,WindDirection,WindDirectionDegrees,WindSpeedMPH,WindSpeedGustMPH,Humidity,HourlyPrecipIn,Conditions,Clouds,dailyrainin,SoftwareType,DateUTC
2013-08-15 03:00:00,81.7,76.0,29.95,SSE,158,0.0,3.0,83,4.61,,,0.00,VWS V14.00,2013-08-15 07:00:00,
2013-08-15 03:55:00,79.9,74.3,29.96,SE,126,4.0,12.0,83,4.92,,BKN120,0.10,VWS V14.00,2013-08-15 07:55:00,
2013-08-15 04:55:00,75.4,73.9,29.97,NE,55,4.0,11.0,95,0.26,,BKN065,0.96,VWS V14.00,2013-08-15 08:55:00,
2013-08-15 05:55:00,74.3,73.1,29.95,East,95,0.0,4.0,96,0.12,,BKN080,1.45,VWS V14.00,2013-08-15 09:55:00,
2013-08-15 06:55:00,75.6,74.4,29.98,WSW,250,0.0,10.0,96,0.00,,BKN130,1.45,VWS V14.00,2013-08-15 10:55:00,
2013-08-15 07:55:00,75.0,73.5,29.98,South,169,0.0,9.0,95,0.00,,-RA,1.45,VWS V14.00,2013-08-15 11:55:00,
2013-08-15 08:55:00,76.8,74.6,29.98,South,182,0.0,7.0,93,0.00,,-RA,1.45,VWS V14.00,2013-08-15 12:55:00,
2013-08-15 09:55:00,79.1,75.2,29.98,South,172,0.0,6.0,88,0.00,,BKN220,1.45,VWS V14.00,2013-08-15 13:55:00,
2013-08-15 10:55:00,83.0,77.3,29.99,SSE,148,0.0,8.0,83,0.00,,BKN210,1.45,VWS V14.00,2013-08-15 14:55:00,
2013-08-15 11:55:00,84.4,77.6,30.00,South,169,0.0,8.0,80,0.00,,BKN240,1.45,VWS V14.00,2013-08-15 15:55:00,
2013-08-15 12:55:00,84.0,77.2,30.00,SE,138,0.0,6.0,80,0.00,,BKN230,1.45,VWS V14.00,2013-08-15 16:55:00,
2013-08-15 13:55:00,83.6,77.2,29.99,SE,126,0.0,7.0,81,0.00,,BKN044,1.45,VWS V14.00,2013-08-15 17:55:00,
2013-08-15 14:55:00,84.9,76.5,29.97,South,190,2.0,7.0,76,0.00,,BKN095,1.45,VWS V14.00,2013-08-15 18:55:00,
2013-08-15 15:55:00,85.8,76.2,29.95,SW,217,4.0,9.0,73,0.00,,BKN110,1.45,VWS V14.00,2013-08-15 19:55:00,
2013-08-15 17:55:00,83.4,76.6,29.94,SSE,159,0.0,7.0,80,0.00,,BKN250,1.45,VWS V14.00,2013-08-15 21:55:00,
2013-08-15 18:55:00,83.2,76.4,29.95,SSE,157,0.0,9.0,80,0.00,,BKN250,1.45,VWS V14.00,2013-08-15 22:55:00,
2013-08-15 19:55:00,82.2,75.8,29.97,SSW,196,0.0,8.0,81,0.00,,BKN250,1.45,VWS V14.00,2013-08-15 23:55:00,
2013-08-15 20:55:00,81.2,76.6,29.99,SE,135,0.0,3.0,86,0.00,,BKN250,1.45,VWS V14.00,2013-08-16 00:55:00,
2013-08-15 21:55:00,80.8,76.2,30.03,SE,135,0.0,2.0,86,0.00,,BKN180,1.45,VWS V14.00,2013-08-16 01:55:00,
2013-08-15 22:55:00,80.6,76.7,30.04,South,190,0.0,4.0,88,0.00,,-RA,1.45,VWS V14.00,2013-08-16 02:55:00,
2013-08-15 23:56:00,80.6,76.7,30.02,South,190,0.0,0.0,88,0.00,,BKN200,0.00,VWS V14.00,2013-08-16 03:56:00,